Flag Weather past 2 weeks in Douala, Cameroon

Now
77 °F

Thunderstorms. Passing clouds.


Feels Like: 78 °F
Forecast: 75 / 88 °F
Wind: 5 mph from West

Location: Douala Obs.

Current Time: Nov 21, 2014 at 4:17:36 AM

Latest Report: Nov 21, 2014 at 3:00 AM


Visibility: 5 mi

Pressure: 29.86 "Hg

Humidity: 94%

Dew point: 75 °F

Location of DoualaLocation

Historic Weather in Douala — Graph

°F

Douala temperature yesterday

Maximum temperature yesterday: 90 °F (at 1:00 PM)
Minimum temperature yesterday: 77 °F (at 12:00 AM)
Average temperature yesterday: 81 °F

Past Weeks' High & Low Weather Summary

 TemperatureHumidityPressure
High91 °F (Nov 7, 3:00 PM)100% (Nov 6, 6:00 AM)29.98 "Hg (Nov 6, 6:00 AM)
Low72 °F (Nov 18, 3:00 AM)52% (Nov 18, 2:00 PM)29.74 "Hg (Nov 9, 3:00 PM)
Average80 °F87%29.85 "Hg
* Reported Nov 6 3:00 AM — Nov 21 3:00 AM, Douala, Weather by CustomWeather, © 2014

Note: Actual official high and low records may vary slightly from our data, if they occured in-between our weather recording intervals... More about our weather records

Advertising

Douala weather history for previous 24 hours

 ConditionsComfort  
Time TempWeatherWind HumidityBarometerVisibility
3:00 AM
Nov 21
77 °FThunderstorms. Passing clouds.5 mph94%29.86 "Hg5 mi
2:00 AM79 °FThunderstorms. Passing clouds.No wind94%29.89 "Hg5 mi
1:00 AM79 °FThunderstorms. Passing clouds.No wind94%29.89 "Hg4 mi
12:00 AM79 °FPassing clouds.No wind94%29.92 "Hg5 mi
11:00 PM
Nov 20
79 °FPassing clouds.5 mph94%29.92 "HgN/A
10:00 PM79 °FPassing clouds.No wind94%29.92 "HgN/A
9:00 PM79 °FPassing clouds.No wind94%29.89 "HgN/A
8:00 PM81 °FThunderstorms. Passing clouds.No wind89%29.89 "HgN/A
7:00 PM82 °FThunderstorms. Passing clouds.5 mph84%29.83 "HgN/A
6:00 PM82 °FThunderstorms. Scattered clouds.7 mph84%29.83 "HgN/A
5:00 PM84 °FThunderstorms. Partly sunny.7 mph79%29.83 "HgN/A
4:00 PM84 °FThunderstorms. Partly sunny.7 mph79%29.80 "HgN/A
3:00 PM88 °FPartly sunny.9 mph70%29.80 "HgN/A
2:00 PM90 °FPartly sunny.12 mph63%29.86 "HgN/A
1:00 PM90 °FPartly sunny.9 mph67%29.89 "HgN/A
12:00 PM88 °FPartly sunny.5 mph70%29.92 "HgN/A
11:00 AM84 °FPartly sunny.9 mph79%29.95 "HgN/A
10:00 AM84 °FPartly sunny.No wind79%29.92 "HgN/A
9:00 AM84 °FPartly sunny.5 mph79%29.92 "Hg6 mi
8:00 AM79 °FFog.5 mph94%29.92 "Hg2 mi
7:00 AM77 °FFog.No wind94%29.89 "Hg2 mi
6:00 AM77 °FThunderstorms. Passing clouds.No wind94%29.86 "HgN/A
5:00 AM77 °FThunderstorms. Partly cloudy.No wind100%29.86 "Hg4 mi
4:00 AM77 °FThunderstorms. Partly cloudy.No wind100%29.86 "Hg4 mi
Weather by CustomWeather, © 2014

See weather overviewHow to use our weather pages